Regional Weather Roundup
Issued by NWS

Home | Current Version | Previous Version | Text Only | Print | Product List | Glossary On
Versions: 1 2 3 4 5 6 7 8 9 10 11 12 13 14 15 16 17 18 19 20 21 22 23 24 25 26 27 28 29 30 31 32 33 34 35 36 37 38 39 40 41 42 43 44 45 46 47 48 49 50
000
ASUS43 KMPX 300910
RWRMN
WEATHER ROUNDUP FOR MINNESOTA
NATIONAL WEATHER SERVICE TWIN CITIES/CHANHASSEN MN
400 AM CDT SUN APR 30 2017


NOTE: "FAIR" INDICATES FEW OR NO CLOUDS BELOW 12,000 FEET WITH NO
SIGNIFICANT WEATHER AND/OR OBSTRUCTIONS TO VISIBILITY. N/A MEANS
CURRENT SKY AND/OR WEATHER CONDITIONS ARE NOT AVAILABLE.

MNZ060>063-068>070-301000-
   Twin Cities Metro

CITY           SKY/WX    TMP DP  RH WIND       PRES   REMARKS
TWIN CITIES    CLOUDY    45  25  45 NE15      30.11F
ST PAUL        CLOUDY    44  26  49 NE13      30.12F
CRYSTAL        CLOUDY    43  24  47 NE7       30.11F
LAKEVILLE      MOCLDY    43  28  56 NE10      30.09S
EDEN PRAIRIE   CLOUDY    46  26  45 NE10      30.09F
SOUTH ST PAUL  CLOUDY    45  26  47 NE8       30.11S
LAKE ELMO      FAIR      43  28  56 NE8       30.12F
$$
MNZ001>005-007-008-013>017-022>024-027-028-301000-
   Northwest Minnesota

CITY           SKY/WX    TMP DP  RH WIND       PRES   REMARKS
BEMIDJI        CLOUDY    33  23  65 E3        30.19F
HALLOCK        CLOUDY    37  28  70 SE9       30.16F
ROSEAU         MOCLDY    39  27  60 SE6       30.19S
WARROAD        CLOUDY    39  27  60 S5        30.20S
THIEF RVR FALL PTCLDY    38  26  62 SE9       30.18F
CROOKSTON      PTCLDY    39  30  70 SE10      30.17F
FOSSTON        CLOUDY    39  21  48 SE7       30.18F
DETROIT LAKES  CLOUDY    41  21  45 E3        30.17F
MOORHEAD       CLOUDY    43  27  52 SE8       30.16F
PARK RAPIDS    CLOUDY    40  19  43 E3        30.16F
MAHNOMEN       FAIR      40  23  50 SE7       30.17F
$$
MNZ006-009>011-018-025>026-301000-
   North Central Minnesota

CITY           SKY/WX    TMP DP  RH WIND       PRES   REMARKS
BAUDETTE       CLOUDY    37  21  52 SE6       30.21F
FLAG ISLAND    CLOUDY    41  27  56 SE8       30.20S
INTL FALLS     PTCLDY    31  21  66 E3        30.23F
WASKISH        PTCLDY    36  27  69 CALM      30.21F
BIG FORK       CLOUDY    34  21  60 CALM      30.22F
LONGVILLE      CLOUDY    36  25  64 CALM      30.18F
GRAND RAPIDS   CLOUDY    33  18  53 N3        30.21F
CRANE LAKE     CLOUDY    27  25  93 CALM      30.27F
ORR            MOCLDY    34  14  44 CALM      30.21F
COOK           CLOUDY    30  21  69 CALM      30.23S
WALKER         FAIR      39  21  48 SE5       30.18F
$$
MNZ012-019>021-037-301000-
   Northeast Minnesota

CITY           SKY/WX    TMP DP  RH WIND       PRES   REMARKS
DULUTH         CLOUDY    37  13  37 E12       30.18F
ELY            CLOUDY    28  23  80 CALM      30.23F
HIBBING        CLOUDY    28  20  71 E3        30.20F
EVELETH        CLOUDY    32  11  42 NE5       30.22F WCI  28
DULUTH HARBOR  CLOUDY    39  28  65 E16       30.22F
TWO HARBORS    CLOUDY    39  19  45 NE5       30.20F
SILVER BAY     CLOUDY    30  27  86 CALM      30.21F
GRAND MARAIS     N/A     41  19  41 E5        30.26F
G MARAIS ARPRT CLOUDY    32  16  51 NE7       30.24F WCI  26
$$
MNZ029>031-032-039>041-046>048-054>057-064-301000-
   West Central Minnesota

CITY           SKY/WX    TMP DP  RH WIND       PRES   REMARKS
FERGUS FALLS   CLOUDY    43  23  45 NE3       30.15S
WHEATON        CLOUDY    45  21  39 NE7       30.15S
MORRIS         CLOUDY    43  25  49 E9        30.11S
ALEXANDRIA     PTCLDY    40  24  53 E12       30.13F
ELBOW LAKE     FAIR      41  23  49 NE8       30.13F
WADENA         CLOUDY    37  21  52 NE6       30.16F
GLENWOOD       CLOUDY    39  27  60 NE9       30.12S
APPLETON       CLOUDY    43  25  49 E8        30.10F
BENSON         MOCLDY    45  19  36 E10       30.12F
ORTONVILLE     CLOUDY    43  27  52 NE9       30.10F
MADISON        CLOUDY    45  25  45 NE8       30.09F
WILLMAR        FAIR      45  27  49 NE12      30.11F
$$
MNZ033>034-036-042>043-049>051-058-059-301000-
   Central Minnesota

CITY           SKY/WX    TMP DP  RH WIND       PRES   REMARKS
ST CLOUD       CLOUDY    41  22  46 NE9       30.13F
SAUK CENTRE    FAIR      40  24  53 E8        30.13F
PAYNESVILLE    CLOUDY    41  25  53 NE9       30.13R
AITKIN         CLOUDY    37  18  44 NE6       30.15F
PINE RIVER     PTCLDY    37  21  52 NE3       30.21F
BRAINERD       CLOUDY    38  21  50 NE7       30.16F
STAPLES        PTCLDY    37  21  52 NE3       30.16F
LONG PRAIRIE   FAIR      37  27  65 N6        30.14F
LITTLE FALLS   CLOUDY    39  23  52 E6        30.15F
LITCHFIELD     CLOUDY    43  28  56 NE8       30.11F
BUFFALO        CLOUDY    42  25  51 NE9       30.12F
MAPLE LAKE     CLOUDY    42  27  55 NE8       30.13F
HUTCHINSON     CLOUDY    43  29  58 NE12      30.11S
$$
MNZ037-044-045-052-053-301000-
   East Central Minnesota

CITY           SKY/WX    TMP DP  RH WIND       PRES   REMARKS
PRINCETON      CLOUDY    43  21  42 NE8       30.13F
MORA           CLOUDY    36  23  60 NE6       30.17F
CAMBRIDGE      CLOUDY    43  27  52 NE7       30.12F
RUSH CITY      CLOUDY    39  21  48 NE7       30.14F
MOOSE LAKE     CLOUDY    34  18  51 CALM      30.16F
HINCKLEY       FAIR      36  27  69 NE9       30.16F
CLOQUET        CLOUDY    36  12  38 CALM      30.17F
MCGREGOR       CLOUDY    36  21  55 NE3       30.17F
$$
MNZ071>073-080-081-089-090-097-098-301000-
   Southwest Minnesota

CITY           SKY/WX    TMP DP  RH WIND       PRES   REMARKS
MONTEVIDEO     CLOUDY    43  27  52 E8        30.10F
GRANITE FALLS  CLOUDY    45  29  53 NE10      30.10S
CANBY          CLOUDY    44  26  48 NE8       30.10S
MARSHALL       CLOUDY    43  28  55 E12       30.07F
REDWOOD FALLS  CLOUDY    45  25  45 NE10      30.08F
OLIVIA         CLOUDY    43  28  56 E8        30.08F
PIPESTONE      CLOUDY    43  23  45 E13       30.03F
WINDOM         CLOUDY    45  27  49 NE13      30.04F
WORTHINGTON    CLOUDY    42  27  55 NE17      30.01F
JACKSON        DRIZZLE   43  32  65 NE13      30.03F
TRACY          CLOUDY    44  30  57 E12       30.07S
SLAYTON        CLOUDY    42  28  58 NE12      30.04F
$$
MNZ065>067-074>077-082>085-091>093-301000-
   South Central Minnesota

CITY           SKY/WX    TMP DP  RH WIND       PRES   REMARKS
MANKATO        CLOUDY    45  29  53 NE15      30.07S
NEW ULM        CLOUDY    43  27  52 NE8       30.07F
ST JAMES       CLOUDY    45  30  57 NE8       30.06F
FAIRMONT       CLOUDY    45  32  60 NE9G20    30.04S
GLENCOE        CLOUDY    44  31  61 NE5       30.09S
FARIBAULT      CLOUDY    45  30  57 NE7       30.08S
OWATONNA       CLOUDY    45  30  57 NE8       30.06S
WASECA         CLOUDY    43  30  61 NE12G17   30.06F
ALBERT LEA     CLOUDY    41  28  60 NE16G23   30.03S
$$
MNZ078>079-086>088-094>096-301000-
   Southeast Minnesota

CITY           SKY/WX    TMP DP  RH WIND       PRES   REMARKS
ROCHESTER      CLOUDY    41  29  62 NE16      30.04F
RED WING       CLOUDY    46  25  42 E8        30.08S
STANTON        CLOUDY    45  31  59 NE10      30.07S
DODGE CENTER   CLOUDY    43  30  61 E14G22    30.05S
WINONA         CLOUDY    46  28  49 NE12      30.06F
AUSTIN         CLOUDY    41  30  65 NE13G18   30.02F
PRESTON        CLOUDY    41  28  60 NE15G23   30.03R
$$
ABBREVIATIONS USED IN REMARKS
   TC - TEMPERATURES IN CELSIUS
  WCI - WIND CHILL INDEX
   HX - HEAT INDEX
  VSB - VISIBILITY
$$



USA.gov is the U.S. government's official web portal to all federal, state and local government web resources and services.